052  
ASUS44 KMOB 081010  
RWRMOB  
REGIONAL WEATHER ROUNDUP  
NATIONAL WEATHER SERVICE MOBILE AL  
400 AM CST THU DEC 08 2022  
 
NOTE: "FAIR" INDICATES FEW OR NO CLOUDS BELOW 12,000 FEET WITH NO  
SIGNIFICANT WEATHER AND/OR S TO VISIBILITY
.  
 
* THESE STATIONS ARE PART OF THE UNIVERSITY OF SOUTH ALABAMA  
MESONET AND ARE NOT UNDER NWS OR FAA QUALITY CONTROL.
 
 
ALZ061>064-081100-  
COASTAL ALABAMA  
 
CITY SKY/WX TMP DP RH WIND PRES REMARKS
 
MOBILE REG APT FOG 68 66 93 CALM 30.24F VSB 1/2  
BROOKLEY FIELD FOG 66 65 96 CALM 30.25F VSB 1/4  
USA CAMPUS* NOT AVBL  
DOG RIVER* NOT AVBL  
 
 
CITY SKY/WX TMP DP RH WIND PRES REMARKS
 
GULF SHORES FOG 61 61 100 CALM 30.23F VSB 1/4  
 

 
 
ALZ051>060-081100-  
INTERIOR SOUTHWEST AND SOUTH CENTRAL ALABAMA  
 
CITY SKY/WX TMP DP RH WIND PRES REMARKS
 
GREENVILLE FOG 53 53 100 CALM 30.22F VSB 1/2  
EVERGREEN FOG 60 59 96 CALM 30.23F VSB 1/4  
ATMORE* N/A 63 63 100 CALM 30.26F  
ANDALUSIA/OPP FOG 66 63 90 SW3 30.23 VSB 1/4  
ANDALUSIA* N/A N/A N/A N/A SW2 30.24F  
FLORALA APT FOG 64 62 93 CALM 30.25 VSB 1/4  
FLORALA* NOT AVBL  
 

 
 
FLZ001>006-081100-  
WESTERN FLORIDA PANHANDLE  
 
CITY SKY/WX TMP DP RH WIND PRES REMARKS
 
PENSACOLA FOG 65 64 97 N3 30.22F VSB 1/4  
NAS PENSACOLA NOT AVBL  
MILTON NOT AVBL  
WHTNG S FIELD NOT AVBL  
 
 
CITY SKY/WX TMP DP RH WIND PRES REMARKS
 
JAY* NOT AVBL  
DUKE FIELD FOG 65 64 97 CALM 30.23F VSB 1/4  
CRESTVIEW FOG 66 66 100 CALM 30.25S VSB 1/4  
VALPARAISO FOG 67 56 67 CALM 30.21F VSB 1/8  
DESTIN HAZE 71 66 84 CALM 30.23F VSB 1/2  
 

 
 
MSZ076-079-081100-  
INTERIOR SOUTHEAST MISSISSIPPI  
 
CITY SKY/WX TMP DP RH WIND PRES REMARKS
 
LEAKESVILLE* NOT AVBL  
AGRICOLA* N/A N/A N/A N/A CALM 30.23  
 

 
 
MARINE OBSERVATIONS  
 
STATION/POSITION TIME TEMP WIND PRES WAVE
 
AIR SEA DIR/SP/G HT/PER  
(UTC) (F) (DEG/KT/KT) (MB) (FT/S)  
PETIT BOIS ISLND 0930 63 CALM / 1 1023.5F  
E DAUPHIN ISLAND NOT AVBL  
USCG MOBILE BAY 0930 67 66 250/ 1/ 2 1024.0F  
STATE DOCKS 0930 67 63 1022.6F  
WEEKS BAY 0845 63 1025.0S  
FORT MORGAN 0930 65 1024.0F  
12 S ORANGE BCH 0950 69 71 300/ 2/ 2 1023.6F 1/ 6  
PENSACOLA BAY 0930 65 65 330/ 2/ 3 1024.0F  
64 S DAUPHIN ISL 0950 74 74 CALM / 2 1024.3F 1/ 5  
 

 
 
SELECTED LOCATIONS ACROSS THE REGION  
 
CITY SKY/WX TMP DP RH WIND PRES REMARKS
 
NEW ORLEANS FOG 67 67 100 CALM 30.24F VSB 1/4  
GULFPORT FOG 67 67 100 CALM 30.23F VSB 1/4  
PASCAGOULA AP FOG 67 66 97 CALM 30.24S VSB 1/4  
PASCAGOULA* NOT AVBL  
HATTIESBURG CLOUDY 68 66 93 SW3 30.24F  
LAUREL CLOUDY 66 66 100 SW3 30.25F  
MERIDIAN CLOUDY 63 62 97 S5 30.22F  
JACKSON CLEAR 62 60 93 S6 30.21F  
MONTGOMERY FOG 55 55 100 CALM 30.23F VSB 1  
TROY FOG 57 54 89 CALM 30.24F VSB 1/4  
ASHFORD* N/A N/A N/A N/A SW2 30.24F  
DOTHAN FOG 63 63 100 CALM 30.27F VSB 1/4  
PANAMA CITY FOG 63 61 93 CALM 30.23F VSB 1/4  
 

 
 
 
 
CLICK HERE TO GO TO PREVIOUS BULLETINS.

The Nexlab AL Page
The Nexlab FL Page
The Nexlab MS Page Main Text Page